Weather observations for the past three days for
Cherry Capital Airport
Metric (Imperial)
Date Time (edt) Wind (kph) Vis. (km) Weather Sky Cond. Temperature (ºC) Relative Humidity Wind Chill (°C) Heat Index (°C) Pressure Precipitation (cm)
Air Dwpt 6 hour altimeter (cm) sea level (mb) 1 hr 3 hr 6 hr
Max. Min.
21 12:53 NE 9 16.09 Mostly Cloudy BKN022 BKN250 22.8 17.8 74% 75.79 1010.3
21 11:53 NE 11 16.09 Mostly Cloudy BKN020 21.1 17.8 82% 75.82 1010.5
21 10:53 E 6 16.09 Overcast BKN009 OVC023 20 17.2 84% 75.82 1010.8
21 09:53 Calm 3.22 Fog/Mist OVC004 16.7 16.1 96% 75.84 1011.1
21 08:53 SW 7 0.80 Fog VV002 16.1 15.6 97% 75.87 1011.3
21 07:53 Calm 0.80 Fog VV002 15.6 15 16.7 15.6 96% 75.84 1011.0
21 06:53 Calm 1.61 Fog/Mist VV002 15.6 15 96% 75.84 1010.9
21 05:53 Calm 6.44 Fog/Mist OVC002 15.6 15 96% 75.79 1010.3
21 04:53 NE 6 6.44 Fog/Mist OVC003 15.6 15 96% 75.77 1010.2
21 03:53 N 7 11.27 Overcast OVC003 16.1 15.6 97% 75.74 1009.6
21 02:53 Calm 12.87 Overcast BKN004 OVC013 16.7 15.6 93% 75.74 1009.5
21 01:53 Calm 11.27 Overcast BKN005 OVC011 16.7 15.6 16.7 15.6 93% 75.74 1009.7 0.84
21 00:53 NW 9 16.09 Overcast OVC004 16.1 15.6 97% 75.74 1009.8
20 23:53 W 6 12.87 Overcast OVC006 15.6 15 96% 75.74 1009.6
20 22:53 N 6 12.87 Light Rain BKN048 OVC060 16.1 15.6 97% 75.74 1009.6 0.58 0.84
20 21:53 W 6 8.05 Rain Fog/Mist FEW018 OVC045 16.1 15.6 97% 75.77 1009.9 0.1
20 20:53 NE 7 12.87 Light Rain FEW060 OVC100 16.1 15 93% 75.72 1009.4 0.15
20 19:53 Calm 6.44 Light Rain Fog/Mist FEW045 BKN090 OVC120 16.1 15.6 28.3 15.6 97% 75.77 1010.2 0.38 0.76
20 18:53 W 7 4.83 Thunderstorm Rain Fog/Mist BKN039CB BKN070 OVC100 16.7 14.4 86% 75.82 1010.9 0.18
20 17:53 N 6 16.09 Overcast FEW038 BKN065 OVC110 17.2 13.3 78% 75.79 1010.5
20 16:53 NW 6 16.09 Thunderstorm Light Rain FEW042 BKN060CB OVC100 18.9 14.4 75% 75.84 1011.1 0.2 0.2
20 15:53 S 7 16.09 Overcast BKN075 BKN160 OVC250 28.3 11.7 36% 28 75.74 1009.4
20 14:53 Vrbl 9 16.09 Overcast FEW095 SCT160 OVC250 26.1 9.4 35% 26 75.77 1009.9
20 13:53 Vrbl 9 16.09 Overcast FEW095 SCT160 OVC240 23.9 8.9 23.9 16.7 39% 25 75.82 1010.8
20 12:53 S 17 16.09 Overcast FEW050 SCT095 OVC150 22.2 9.4 44% 75.97 1012.9
20 11:53 SW 15 16.09 Light Rain FEW060 SCT090 OVC120 21.7 8.9 44% 76.07 1014.0
20 10:53 Vrbl 7 16.09 Overcast BKN150 OVC220 21.1 8.3 44% 76.05 1013.6
20 09:53 Calm 16.09 Overcast SCT160 OVC220 19.4 7.2 45% 76.07 1014.2
20 08:53 Calm 16.09 Overcast BKN150 OVC220 17.8 6.1 46% 76.05 1013.8
20 07:53 Calm 16.09 Overcast BKN150 OVC220 17.2 5 17.2 11.7 45% 76.05 1013.6
20 06:53 NW 6 16.09 Overcast BKN140 OVC220 17.2 5.6 47% 76 1013.2
20 05:53 Calm 16.09 Fair CLR 16.1 6.7 54% 76.02 1013.3
20 04:53 SE 6 16.09 Fair CLR 15.6 7.2 58% 75.97 1012.6
20 03:53 Calm 16.09 Fair CLR 14.4 7.2 62% 76.02 1013.2
20 02:53 Calm 16.09 Fair CLR 13.3 8.9 75% 76.07 1014.0
20 01:53 Calm 16.09 Fair CLR 12.2 8.9 19.4 10.6 80% 76.1 1014.5
20 00:53 Calm 16.09 Fair CLR 12.2 9.4 83% 76.1 1014.4
19 23:53 Calm 16.09 Fair CLR 13.3 9.4 77% 76.12 1014.8
19 22:53 Calm 16.09 Fair CLR 13.9 10.6 81% 76.12 1014.7
19 21:53 Calm 16.09 Mostly Cloudy BKN210 15.6 10 70% 76.15 1015.0
19 20:53 N 6 16.09 Mostly Cloudy FEW190 BKN250 16.7 9.4 62% 76.12 1014.7
19 19:53 Calm 16.09 Mostly Cloudy BKN250 18.9 7.8 22.8 18.9 49% 76.15 1015.2
19 18:53 NE 11 16.09 Mostly Cloudy BKN250 20 7.2 44% 76.2 1015.6
19 17:53 N 13 16.09 Mostly Cloudy BKN250 20.6 7.8 44% 76.15 1015.1
19 16:53 N 13 16.09 A Few Clouds FEW250 22.2 6.7 37% 76.15 1014.9
19 15:53 NE 15 16.09 A Few Clouds FEW250 22.8 5 32% 76.15 1014.9
19 14:53 NE 13 16.09 A Few Clouds FEW250 22.8 5.6 33% 76.15 1014.9
19 13:53 N 13 16.09 Partly Cloudy FEW150 SCT250 21.7 5 22.2 17.8 34% 76.17 1015.1
19 12:53 NE 13 16.09 Partly Cloudy FEW180 SCT250 21.1 6.1 38% 76.2 1015.7
19 11:53 NE 13 16.09 A Few Clouds FEW180 FEW250 20.6 6.1 39% 76.17 1015.6
19 10:53 NE 15 16.09 A Few Clouds FEW120 FEW200 20.6 6.7 41% 76.17 1015.5
19 09:53 N 15 16.09 A Few Clouds FEW120 FEW200 19.4 6.7 44% 76.2 1015.7
19 08:53 NE 11 16.09 A Few Clouds FEW080 FEW180 18.3 10.6 61% 76.1 1014.5
19 07:53 N 11 16.09 A Few Clouds FEW080 FEW120 17.8 12.2 23.3 17.8 70% 76.02 1013.1
19 06:53 NW 20 16.09 A Few Clouds FEW080 FEW120 19.4 13.3 68% 75.9 1011.7
19 05:53 W 15 16.09 Fair CLR 20 12.2 61% 75.84 1010.8
19 04:53 S 6 16.09 Mostly Cloudy BKN070 20.6 14.4 68% 75.79 1010.0
19 03:53 SW 9 16.09 A Few Clouds FEW100 21.1 13.3 61% 75.72 1009.0
19 02:53 S 9 16.09 A Few Clouds FEW100 22.8 12.8 53% 75.67 1008.5
19 01:53 Vrbl 7 16.09 Fair CLR 22.8 11.7 22.8 16.7 50% 75.69 1008.6
19 00:53 S 7 16.09 A Few Clouds FEW100 21.1 11.1 53% 75.69 1008.8
18 23:53 Calm 16.09 Fair CLR 17.2 13.3 78% 75.72 1009.2
18 22:53 Calm 16.09 Fair CLR 16.7 12.8 78% 75.72 1009.2
18 21:53 Calm 16.09 Mostly Cloudy BKN160 18.3 12.8 70% 75.74 1009.4
18 20:53 Calm 16.09 A Few Clouds FEW080 FEW170 19.4 12.2 63% 75.72 1009.3
18 19:53 NE 6 16.09 A Few Clouds FEW080 FEW170 21.7 12.2 30.6 21.7 55% 75.69 1008.9
18 18:53 NE 9 16.09 A Few Clouds FEW050 23.3 12.8 52% 75.67 1008.7
18 17:53 NE 15 16.09 A Few Clouds FEW050 23.9 12.8 50% 25 75.67 1008.9
18 16:53 Vrbl 9 16.09 A Few Clouds FEW050 30.6 9.4 27% 29 75.69 1008.7
18 15:53 Vrbl 6 G 26 16.09 A Few Clouds FEW060 30 8.9 27% 29 75.72 1009.2
18 14:53 Calm 16.09 A Few Clouds FEW060 29.4 9.4 29% 28 75.74 1009.7
18 13:53 SE 11 16.09 A Few Clouds FEW060 28.3 9.4 28.3 13.9 31% 27 75.79 1010.1
Date Time (edt) Wind (kph) Vis. (km) Weather Sky Cond. Air Dwpt Max. Min. Relative Humidity Wind Chill (°C) Heat Index (°C) altimeter (cm) sea level (mb) 1 hr 3 hr 6 hr
6 hour
Temperature (ºC) Pressure Precipitation (cm)